Wind_Speed
8 9 10 10 11 12 10 8 7 6 4 3 1 1 2 3 4 4 6 7 8 9 9 8 8 9 9 9 9 9 10 9 9 11 11 9 9 9 9 9 9 10 9 9 9 8 7 6 5 5 5 5 5 4 5 5 6 6 8 11 13 14 14 14 13 12 14 17 19 21 22 24 27 27 26 25 23 22 22 21 20 19 17 17 15 14 13 13
9 10 10 11 11 11 10 8 6 4 2 1 0 2 3 3 4 5 6 7 8 9 8 8 9 9 9 9 9 9 9 8 9 11 10 9 10 9 9 10 10 11 11 10 9 8 8 6 5 4 4 4 5 4 5 5 5 7 9 12 13 14 14 14 14 14 15 18 21 21 22 23 23 24 23 23 22 22 22 21 19 18 16 15 15 14 14 14
11 11 11 11 11 10 9 7 4 2 0 1 1 2 3 4 5 6 6 7 8 7 8 8 8 8 9 9 9 9 9 9 9 9 9 11 10 10 10 10 11 11 11 10 9 8 8 8 7 5 4 3 4 5 5 5 6 8 9 11 13 14 14 15 16 15 16 19 20 20 19 19 20 20 22 23 23 22 21 20 19 17 15 14 14 15 16 16
12 12 11 11 10 9 8 6 3 1 1 1 1 2 3 4 5 6 6 6 6 7 7 7 7 8 9 9 9 9 8 9 9 9 11 12 11 11 11 10 10 10 10 10 10 9 9 10 10 8 7 6 6 6 6 6 7 9 10 11 13 14 14 16 17 17 18 18 17 17 17 18 18 18 20 23 25 24 22 19 17 16 15 15 15 16 18 18
12 12 11 10 9 8 7 4 2 2 1 1 2 3 4 4 5 5 5 5 6 7 7 7 8 9 9 10 10 10 8 8 10 12 13 12 11 11 11 11 10 10 11 11 11 10 10 10 10 10 10 9 8 8 8 7 8 10 12 13 13 14 15 16 17 17 17 15 15 17 17 16 16 16 19 22 23 23 20 18 16 15 15 15 16 18 19 18
12 11 10 10 8 7 5 3 2 1 1 1 2 3 4 4 4 5 5 6 6 7 8 8 9 9 10 11 9 10 9 8 10 12 13 12 12 11 11 11 11 11 11 10 10 10 10 10 10 11 10 9 9 8 8 9 9 11 14 14 13 13 13 13 13 13 14 15 17 19 18 16 15 16 18 20 21 20 19 18 17 16 16 16 17 19 20 17
12 11 10 9 8 6 4 2 1 1 1 1 2 3 3 4 5 6 6 7 8 9 9 8 9 9 10 11 10 11 11 10 11 12 13 12 11 11 11 12 11 10 9 9 10 9 9 10 9 10 9 9 8 7 8 9 10 12 13 14 12 11 9 9 11 13 15 16 19 20 18 17 18 19 20 22 23 21 20 19 18 17 17 17 18 20 20 17
11 10 10 8 7 5 3 2 2 2 1 1 2 3 4 5 6 7 7 8 9 9 9 9 9 9 10 10 10 11 11 12 13 13 12 12 11 11 11 11 10 9 8 9 10 10 10 10 9 9 9 9 9 8 8 8 9 10 10 12 11 9 8 10 13 14 15 17 19 20 20 21 21 22 22 24 25 23 23 21 20 19 18 18 20 22 21 18
11 10 9 7 5 4 3 3 2 1 1 2 3 4 6 6 7 9 10 11 10 10 9 9 9 9 10 11 10 11 13 13 14 12 11 11 11 11 10 10 10 10 10 10 11 10 10 10 9 9 9 9 9 8 8 9 9 8 8 8 8 7 8 13 14 15 16 18 20 22 24 25 24 24 25 26 26 27 27 24 22 21 20 20 21 23 23 20
11 9 8 7 6 5 4 3 3 3 3 4 5 6 7 8 10 11 11 11 10 10 10 10 10 8 11 13 10 10 13 13 12 12 12 12 12 11 10 10 11 11 11 11 11 11 10 9 9 10 10 9 10 10 10 10 8 7 6 7 7 6 9 14 15 16 18 19 20 23 28 29 26 26 27 27 28 29 29 26 24 23 22 23 23 24 25 23
11 9 8 7 6 5 5 4 4 5 5 6 7 8 9 10 10 10 11 11 12 13 13 12 10 9 13 12 9 9 12 12 13 13 13 12 12 12 11 12 12 12 13 13 13 12 12 11 11 10 9 9 11 12 9 8 7 6 5 7 8 8 9 15 17 18 18 18 19 24 29 30 28 28 27 27 29 30 29 27 25 24 24 25 26 27 27 26
11 10 9 8 7 6 6 6 6 6 6 7 9 10 10 10 9 10 11 12 13 15 15 13 11 12 12 7 8 11 12 13 14 14 14 14 13 13 13 13 13 14 15 15 15 14 14 14 12 11 9 10 11 9 7 8 7 5 7 9 10 9 10 14 16 17 17 17 17 23 31 32 28 26 26 28 29 29 29 27 25 24 25 26 27 28 28 27
11 10 9 8 8 7 8 7 7 7 8 10 11 11 11 11 10 11 11 12 15 16 14 12 11 12 9 7 10 13 13 15 16 17 16 15 15 15 15 15 15 15 16 16 15 14 14 14 13 12 10 11 10 7 7 10 8 7 11 11 10 10 11 13 16 17 18 18 18 22 33 36 28 25 28 29 29 30 29 27 24 24 25 26 27 27 27 27
11 10 10 9 9 9 8 8 9 10 11 12 11 11 12 13 13 13 13 13 15 13 11 10 9 10 9 10 14 14 16 18 17 16 15 15 16 16 16 15 15 16 16 16 14 14 14 12 12 12 11 12 10 5 8 11 10 10 12 11 12 13 13 13 15 19 20 21 25 25 32 38 32 29 30 31 31 31 30 27 25 25 24 25 25 26 25 25
12 11 11 10 10 10 10 11 13 13 13 13 12 12 13 14 14 15 15 14 13 11 10 9 9 9 9 12 18 18 17 16 15 14 15 16 16 16 16 16 16 16 16 14 14 15 14 12 11 11 11 10 8 7 9 11 10 10 13 12 15 18 19 16 14 19 24 26 29 26 30 37 34 32 32 32 31 29 28 26 24 24 23 23 23 24 23 22
12 12 11 11 11 12 14 15 15 15 14 14 14 14 14 14 14 14 14 13 13 13 12 10 9 9 10 14 17 17 14 14 15 17 17 17 16 15 15 15 16 15 14 14 15 16 14 13 13 11 11 9 7 11 10 9 10 13 17 18 19 21 23 22 16 19 26 30 30 26 29 36 34 32 31 29 25 23 24 22 21 22 21 21 22 22 21 21
13 13 13 14 14 15 16 16 16 16 15 15 15 16 15 15 15 14 13 12 13 14 16 16 12 9 13 16 14 15 16 17 18 19 18 17 16 15 15 16 16 15 14 15 16 15 14 15 15 13 12 11 10 14 11 9 16 19 21 22 23 22 22 24 22 22 28 32 32 29 30 34 29 25 26 24 20 20 21 18 18 19 19 20 21 20 21 24
14 14 15 16 17 17 16 16 16 16 16 16 16 16 15 15 14 13 14 14 14 12 14 18 17 13 15 18 16 18 21 20 20 20 18 17 15 14 15 15 15 15 15 16 15 15 15 14 14 12 12 13 14 17 15 13 17 20 22 24 24 22 19 21 25 28 32 34 34 32 32 30 24 20 21 20 18 17 16 15 17 17 18 19 20 21 23 25
15 16 17 17 17 17 16 16 16 14 15 15 16 16 16 15 14 14 15 14 13 14 15 19 22 20 19 19 18 19 21 20 20 19 17 16 15 15 16 17 16 16 16 17 16 16 15 13 14 14 13 15 18 20 19 15 16 18 22 23 23 23 21 22 27 29 32 36 36 33 33 28 22 21 20 17 17 15 14 15 16 17 19 20 21 24 27 27
16 17 17 16 16 16 17 18 17 16 15 15 15 15 16 14 13 15 16 14 16 21 21 21 22 22 20 18 17 17 20 20 18 17 16 16 17 16 16 18 17 15 16 17 17 17 15 14 17 16 15 17 19 20 20 18 17 19 21 20 19 22 26 28 28 28 29 34 36 32 30 23 20 23 18 15 16 13 12 14 16 19 21 24 26 28 29 28
17 17 16 15 16 17 18 19 20 19 17 17 16 15 14 12 12 16 18 19 21 22 21 22 22 20 20 19 16 16 18 17 16 17 17 16 16 15 14 16 16 15 18 18 18 17 14 16 17 15 14 16 18 19 20 19 19 22 21 19 20 24 30 32 30 32 31 33 35 28 23 21 19 19 15 15 16 9 9 14 17 21 25 28 29 28 28 27
17 16 16 16 18 19 19 19 19 18 17 17 15 12 11 10 11 13 16 20 21 20 20 22 22 21 21 21 18 16 16 14 14 16 17 16 15 14 15 16 17 17 18 17 16 16 16 18 16 13 13 15 17 18 20 22 23 25 22 20 23 26 32 38 38 36 33 36 32 21 23 23 14 11 13 18 16 9 10 14 18 23 26 28 28 26 26 26
17 16 17 18 19 19 19 18 17 16 15 14 10 8 9 10 10 10 13 18 20 19 19 19 20 21 20 21 19 16 17 18 18 20 21 19 17 17 16 18 20 18 18 17 16 16 18 19 15 13 13 14 19 20 21 25 26 27 23 21 26 27 28 39 42 36 34 34 23 19 27 18 4 8 13 16 15 12 13 16 19 23 25 26 25 24 24 25
17 17 18 18 18 18 17 16 15 13 11 8 7 8 9 10 9 8 9 15 20 20 20 19 20 22 21 21 21 16 19 23 21 22 23 21 19 20 20 20 21 19 19 20 17 16 19 18 15 13 13 16 20 22 24 28 29 29 23 22 29 28 27 36 39 36 34 24 13 20 25 7 0 8 9 11 16 18 19 20 21 23 24 23 22 22 22 24
17 18 17 16 16 15 14 13 10 8 5 5 7 9 9 9 8 6 5 11 19 20 20 20 19 22 22 21 22 18 18 22 23 25 24 22 22 22 22 21 21 19 19 21 18 16 18 20 17 14 14 17 20 22 25 28 33 31 23 23 30 26 29 38 37 34 32 19 11 17 13 1 2 7 8 14 19 20 23 23 22 23 23 22 21 22 24 27
17 17 15 14 13 12 11 9 6 5 5 6 8 8 8 7 7 6 3 7 17 20 20 20 19 22 22 21 22 19 17 22 25 23 22 22 23 23 21 20 21 19 17 21 20 15 18 21 18 15 16 17 18 22 24 28 34 30 23 26 29 25 31 39 35 31 26 17 14 10 4 3 5 9 16 18 17 20 22 22 22 21 21 22 22 24 28 32
16 14 13 12 11 10 8 6 5 5 6 6 7 7 8 7 6 6 3 3 12 19 19 19 19 22 24 23 23 21 19 21 22 21 23 24 23 24 21 19 22 19 17 23 21 17 19 20 17 16 16 16 20 21 24 30 32 29 26 28 29 28 34 38 33 27 19 17 14 5 4 11 10 14 22 21 17 19 21 20 20 20 21 22 24 28 32 37
14 13 12 11 9 8 6 5 5 5 4 4 6 7 8 8 6 5 4 3 9 16 17 19 19 20 23 24 24 23 22 22 22 23 26 24 22 25 21 19 23 19 17 23 23 19 20 18 15 16 16 17 20 19 24 31 30 30 29 29 31 31 35 36 26 17 14 15 10 6 7 12 14 18 19 19 19 17 17 18 19 21 23 25 28 32 37 42
13 12 11 9 7 6 5 5 5 5 4 4 6 7 8 7 4 4 5 4 9 15 15 17 19 18 19 21 22 24 23 23 24 24 23 21 22 25 21 19 23 17 14 21 22 18 17 14 13 17 18 20 17 15 26 31 29 29 29 31 33 31 37 31 13 11 14 12 8 5 10 9 12 19 14 15 17 18 18 19 21 24 25 28 32 37 43 49
11 9 8 7 5 5 5 5 6 6 6 6 7 8 9 7 3 3 5 5 10 15 14 14 19 20 20 21 23 25 24 23 25 22 21 21 21 23 20 18 23 16 11 20 22 17 15 9 12 20 19 17 14 16 27 29 26 28 29 33 36 37 40 22 5 13 13 7 6 5 15 16 10 11 11 13 14 17 19 21 24 26 27 32 38 43 49 54
7 6 6 5 5 5 5 5 6 6 6 6 6 7 8 9 8 5 4 6 9 14 14 13 18 21 22 25 26 27 25 24 26 25 24 25 23 27 26 25 30 24 20 28 29 23 17 9 14 23 18 14 16 23 29 24 23 28 28 33 35 37 39 19 11 19 7 5 10 11 23 25 9 7 11 13 14 16 19 21 25 28 32 38 43 48 54 58
4 4 5 5 6 6 7 7 7 7 6 6 6 5 4 7 11 10 6 6 8 14 15 14 18 22 23 25 27 28 26 25 28 28 28 28 28 32 32 31 35 30 28 34 32 27 21 11 15 23 16 12 21 33 34 26 28 29 26 30 26 20 21 13 11 13 5 12 18 18 26 23 13 15 16 14 17 19 21 23 26 31 37 43 47 53 59 62
4 5 5 6 7 8 8 8 9 8 7 6 6 6 5 6 8 9 10 9 9 14 16 14 18 21 22 24 27 27 26 25 27 27 26 25 26 29 28 28 31 26 25 30 28 29 25 14 17 23 14 11 24 34 31 31 33 25 21 26 17 5 7 8 6 4 8 17 21 23 23 15 14 18 16 17 21 20 21 22 26 35 41 46 52 58 64 66
6 6 7 7 8 9 9 8 9 9 9 9 7 5 8 10 8 8 11 11 11 15 16 14 17 20 21 25 27 27 26 24 26 26 24 24 27 29 29 29 29 27 26 26 24 25 19 12 20 25 15 12 25 28 23 29 29 17 18 23 15 11 10 7 5 4 8 19 26 22 15 12 16 16 17 22 22 21 21 23 29 39 44 49 59 67 70 69
8 8 8 8 8 10 10 9 9 9 10 11 9 9 11 10 8 9 11 12 12 15 17 15 17 20 21 23 25 26 25 23 25 24 23 26 28 30 30 30 30 30 29 25 23 21 15 15 23 22 11 14 27 27 23 28 22 14 21 21 18 25 23 17 17 17 16 16 18 13 11 17 20 19 21 20 19 21 22 29 37 43 49 57 67 71 68 64
8 9 9 9 10 11 11 11 10 9 10 9 8 13 16 12 9 10 12 13 13 16 18 16 18 21 22 22 23 23 23 21 23 23 23 25 25 27 28 30 31 30 28 25 23 19 17 23 27 18 10 18 27 25 23 24 19 18 22 21 25 32 26 19 20 21 16 9 10 11 13 18 19 20 24 20 20 25 29 37 44 50 59 68 69 64 60 61
10 11 11 11 12 11 11 11 10 11 11 7 8 16 18 14 13 12 13 15 15 16 19 18 19 22 23 23 23 23 22 21 21 22 23 23 23 25 27 28 29 28 27 26 23 20 21 30 32 20 17 27 29 25 25 21 17 17 17 23 31 26 18 14 11 11 8 5 10 17 19 21 19 17 21 23 26 33 37 44 53 61 69 68 60 56 58 62
13 13 13 13 13 12 11 10 10 11 9 6 12 18 17 14 15 14 14 16 16 16 18 19 19 20 22 23 23 24 24 22 22 23 22 22 23 24 25 27 27 26 27 25 22 21 22 28 31 24 24 32 29 26 29 25 15 11 15 26 27 16 15 17 11 8 8 4 8 19 24 23 18 16 21 27 31 37 44 53 63 68 66 59 55 56 60 61
13 13 13 13 13 12 13 13 12 11 8 9 16 17 15 15 16 15 15 16 16 16 17 19 19 20 20 22 22 23 24 22 22 24 22 22 23 22 24 26 25 24 26 25 22 22 20 19 22 26 31 34 31 28 31 28 17 12 19 27 24 15 18 22 19 15 12 7 7 15 18 11 10 17 24 27 30 41 53 61 65 63 58 54 55 59 62 60
11 12 12 12 11 11 14 15 12 9 10 15 19 17 15 16 16 16 16 16 17 16 17 19 20 19 20 22 22 22 23 20 20 22 21 22 24 22 24 27 26 24 24 24 22 24 24 15 20 33 39 35 31 26 21 18 15 17 25 26 21 21 23 23 24 22 16 8 5 8 11 11 16 23 23 24 34 50 61 64 62 58 55 55 58 62 62 58
9 10 11 10 11 14 16 13 9 11 15 18 18 17 17 16 15 16 16 16 17 17 17 19 20 20 20 21 21 21 22 19 19 22 21 22 24 22 24 27 27 25 25 25 24 26 28 21 24 37 42 37 33 27 18 13 13 21 31 28 23 26 27 17 14 23 24 17 13 12 11 18 26 23 20 29 46 60 65 62 58 56 56 58 62 62 60 58
8 9 11 10 11 14 14 11 11 15 18 18 18 17 17 16 16 16 16 17 17 17 17 18 19 20 20 21 21 21 22 20 19 21 21 22 24 24 25 27 27 26 25 25 24 27 29 24 27 38 40 38 37 33 28 24 24 32 36 33 30 32 31 19 11 21 29 29 30 22 13 17 23 20 27 43 56 62 61 57 55 57 59 62 63 62 60 58
8 10 13 13 13 13 12 13 15 16 16 17 18 17 17 17 16 15 16 17 17 17 17 18 19 20 20 21 21 21 23 20 19 22 22 23 24 25 25 26 26 25 24 22 23 27 24 20 28 39 41 44 43 39 36 32 33 39 38 36 36 35 33 27 21 25 27 29 30 18 10 20 28 31 44 55 58 58 56 54 57 59 62 63 62 61 60 58
9 12 14 14 14 12 12 15 15 15 16 18 17 17 16 16 16 15 15 16 17 17 17 18 20 19 20 21 20 21 22 20 19 22 23 23 25 24 24 25 25 24 23 22 23 25 21 18 24 27 27 34 38 37 39 39 37 39 38 37 36 33 31 29 29 26 17 19 22 12 13 31 41 47 58 59 55 54 54 57 59 60 62 63 61 60 59 57
9 11 14 15 13 11 13 16 15 14 16 17 17 17 16 15 16 15 15 16 17 17 17 19 20 20 20 20 19 20 21 20 19 20 22 23 23 23 23 24 23 23 22 22 23 24 22 20 20 14 10 13 18 23 33 39 39 39 39 36 33 32 30 28 29 23 13 17 24 19 25 44 55 59 62 57 52 54 58 60 60 60 62 61 60 59 58 56
10 10 11 13 13 12 14 16 15 15 16 15 16 17 16 15 15 15 15 16 17 18 18 19 20 19 19 19 18 19 20 20 19 20 22 22 22 22 23 22 22 22 22 23 24 24 23 22 19 17 17 21 27 31 31 32 36 41 41 34 29 29 29 27 26 24 23 27 29 30 37 50 60 62 57 52 52 58 63 63 62 62 61 60 59 59 57 55
11 11 10 9 10 12 14 15 15 15 15 15 15 16 16 15 15 15 15 16 17 18 18 19 20 19 19 19 19 19 20 19 18 20 21 21 22 22 22 22 21 21 23 25 25 25 25 24 23 26 32 34 35 34 32 32 37 41 38 31 27 27 28 28 25 27 31 26 28 42 51 54 60 59 49 48 55 62 65 64 64 63 61 59 59 57 55 55
10 12 11 10 10 12 14 14 14 15 15 15 15 15 15 16 15 15 15 16 18 18 18 19 21 20 20 21 20 21 21 20 20 21 21 22 22 22 22 22 20 21 24 24 25 26 25 26 27 32 39 40 34 32 36 40 40 35 28 25 26 27 28 28 26 31 36 31 36 53 58 56 58 54 46 50 59 63 65 65 64 63 62 61 59 56 55 55
11 11 11 11 11 12 13 13 14 14 14 14 15 15 15 16 16 15 16 17 18 18 19 19 20 20 20 21 21 22 22 22 22 22 22 22 22 22 22 20 19 22 23 23 25 25 25 27 30 34 41 42 37 36 41 44 40 29 18 21 28 29 28 29 30 35 40 41 46 54 55 55 52 46 48 57 62 64 66 65 64 64 63 61 57 55 54 55
11 10 11 11 11 12 13 13 14 14 14 14 14 15 15 15 16 16 16 17 18 18 19 19 19 19 20 20 21 21 21 21 21 22 22 22 21 21 21 19 20 21 21 23 24 24 26 29 31 37 43 41 39 43 48 45 34 22 19 26 31 29 28 31 36 43 46 48 51 52 52 51 46 46 56 63 63 65 67 65 65 64 62 59 56 55 55 57
11 10 10 10 11 12 12 12 13 13 13 14 14 14 15 16 16 16 16 17 18 18 19 19 19 19 20 21 21 21 21 21 20 20 21 20 20 20 19 19 19 20 21 23 23 25 28 30 34 39 40 40 40 44 49 45 30 22 26 30 27 26 29 35 42 48 50 51 55 52 47 47 50 57 64 65 65 66 66 65 65 63 59 56 55 57 59 60
10 10 10 9 10 11 11 12 12 12 12 13 14 15 15 16 16 16 16 17 18 19 20 20 20 20 20 20 21 21 22 21 20 20 19 19 19 18 18 18 18 19 21 22 24 27 29 32 37 35 33 39 42 43 47 40 25 22 26 22 20 27 35 43 50 53 52 51 50 46 44 49 59 65 67 67 67 66 64 64 64 61 58 57 58 59 60 59
Wind_Direction
154 157 160 163 164 162 156 141 123 109 91 80 76 43 25 3 355 347 347 355 359 358 359 3 7 9 10 5 355 351 350 346 353 3 1 357 357 1 5 4 3 1 358 353 351 345 337 335 321 302 298 285 257 244 249 247 244 252 256 250 250 252 253 252 250 257 266 271 278 287 293 295 296 296 297 297 299 300 300 300 301 300 297 297 300 301 301 302
154 156 159 161 158 152 144 135 124 106 84 72 1 20 10 347 338 339 348 353 353 356 3 6 7 9 9 4 358 356 354 359 11 9 3 9 12 12 16 19 18 11 6 3 0 353 346 346 331 312 302 269 251 254 255 258 263 269 267 259 254 253 259 261 262 270 276 280 284 288 293 295 297 298 299 300 301 301 301 303 302 298 296 297 300 303 304 303
156 159 161 157 149 141 136 133 130 122 165 282 348 8 344 331 333 342 351 353 356 3 10 10 11 11 9 9 8 9 13 24 23 10 11 20 17 16 23 26 25 20 11 6 8 3 357 355 346 338 336 302 283 285 279 283 284 279 276 269 263 262 267 272 276 282 286 290 292 295 298 300 301 302 303 306 305 304 303 302 299 296 295 297 302 307 308 306
160 160 157 150 141 136 134 138 150 204 262 305 352 331 325 332 338 349 354 355 5 11 15 16 18 19 18 20 22 23 25 30 27 19 22 22 18 20 25 27 27 26 14 4 8 9 8 3 352 347 351 343 318 315 328 329 302 287 285 278 273 275 279 286 291 295 297 298 302 307 307 305 301 300 303 307 308 308 308 303 298 299 300 303 309 311 311 307
163 159 151 144 139 136 140 157 193 248 290 323 318 318 331 342 346 354 0 9 17 20 24 29 31 32 31 31 30 26 22 29 27 24 26 21 21 23 23 24 22 24 14 359 2 6 8 4 351 346 346 336 325 325 330 325 305 292 291 289 286 288 292 297 300 301 301 301 310 317 316 311 303 300 305 309 312 313 311 307 304 304 305 309 313 313 311 307
164 155 148 143 141 145 161 189 217 260 291 287 309 332 347 355 0 8 16 21 27 34 39 44 46 43 41 40 35 32 32 35 29 27 28 24 26 26 23 21 18 21 10 352 356 1 1 358 349 344 339 331 327 321 313 310 305 296 292 294 297 300 301 306 308 306 305 304 311 317 319 319 312 311 318 322 323 321 314 309 309 309 310 312 313 314 312 306
161 153 148 148 153 166 186 196 184 224 251 294 346 4 13 21 23 27 31 35 42 48 48 53 53 45 46 46 39 38 36 38 37 34 30 26 28 25 21 17 13 14 4 344 344 350 353 350 342 336 331 328 325 312 304 306 305 297 291 293 301 308 310 316 317 311 307 306 308 313 317 321 319 319 328 333 330 327 318 311 312 313 314 313 313 316 313 303
157 154 155 159 168 179 181 165 186 220 240 23 35 41 41 41 42 45 49 52 54 55 56 59 58 50 48 47 43 43 39 41 42 36 29 24 22 20 16 8 0 0 353 338 334 340 343 337 332 332 330 328 324 313 304 305 303 296 291 296 303 305 307 312 313 310 307 308 309 313 318 320 322 322 330 333 329 329 324 316 313 316 317 315 314 316 313 301
157 159 162 166 169 168 165 174 192 173 93 73 69 61 56 58 61 63 61 59 55 54 58 58 57 54 51 51 49 46 43 42 39 32 24 18 13 11 7 354 347 347 342 336 335 337 337 336 335 336 336 326 318 310 303 307 307 301 297 303 308 302 302 305 305 304 307 310 314 318 319 320 322 322 329 330 326 327 325 319 315 316 317 315 313 313 312 302
162 161 160 160 161 164 169 169 148 113 101 85 75 68 70 73 71 70 66 62 58 55 57 58 57 57 57 51 42 41 40 37 31 23 17 11 7 3 357 348 342 340 340 337 336 338 338 340 346 349 344 327 316 308 302 304 304 298 297 305 310 307 304 305 310 312 313 316 320 322 317 317 319 321 328 326 322 324 322 319 318 315 314 312 309 309 310 303
158 154 153 156 159 159 152 138 123 109 97 85 83 82 80 78 75 73 68 64 64 61 58 58 56 54 56 45 27 38 39 32 25 16 11 7 2 356 350 347 343 341 341 339 339 343 346 351 0 0 351 333 317 307 298 299 298 291 295 300 295 299 308 312 321 322 322 326 325 321 314 311 316 323 326 320 319 323 321 320 319 314 311 308 305 304 306 303
149 148 149 150 147 140 132 123 113 102 95 94 93 89 83 79 76 72 68 64 64 62 57 54 48 46 49 29 19 38 36 30 24 15 11 4 359 354 350 349 346 343 343 344 347 351 356 358 1 2 355 342 324 303 290 298 297 294 308 305 287 284 299 314 326 329 336 341 331 322 311 305 314 323 320 316 319 321 320 322 319 312 307 303 300 299 300 300
141 140 138 137 131 126 122 113 107 103 101 99 94 89 82 76 74 73 69 62 59 59 55 50 44 42 34 5 23 33 28 26 22 15 7 359 357 354 355 354 348 348 347 348 351 357 2 358 356 1 352 341 336 307 285 294 294 305 314 314 302 286 286 307 324 333 344 346 337 326 308 305 318 323 315 316 319 319 321 323 317 307 301 295 293 293 295 296
133 130 128 126 122 119 114 108 108 105 101 97 92 89 84 78 76 73 67 60 57 56 51 42 37 41 27 17 27 24 20 21 17 13 3 359 0 357 358 355 352 353 352 351 353 358 3 0 354 348 334 337 348 315 277 289 295 309 315 316 318 309 299 309 319 325 334 336 336 327 308 310 323 322 317 318 318 318 321 321 314 304 295 290 289 289 291 292
126 123 123 120 118 116 112 110 106 102 98 91 89 91 88 82 76 72 67 60 56 51 46 34 28 33 17 15 25 22 19 15 10 9 6 6 3 359 359 357 358 359 355 354 353 356 2 2 353 342 336 336 345 332 296 284 287 315 329 327 326 320 314 318 320 321 325 327 331 326 310 312 319 319 317 318 318 321 322 317 308 297 289 285 284 284 286 287
123 120 120 118 116 113 110 108 105 102 97 90 91 91 88 81 72 69 66 62 60 53 46 35 26 29 16 15 22 21 20 15 11 11 10 8 4 2 2 2 6 2 357 355 353 358 358 350 346 347 347 334 325 333 316 285 295 326 340 338 335 328 322 324 327 326 325 323 324 323 310 309 315 318 318 322 327 328 323 311 296 287 279 276 275 276 277 278
122 122 121 118 115 111 109 109 107 104 97 93 92 87 81 76 70 69 67 65 60 52 46 38 30 30 24 20 18 17 20 19 16 13 10 8 6 7 7 8 10 4 1 359 357 356 348 342 347 347 341 336 333 335 337 326 326 335 340 338 334 328 323 323 327 330 324 320 319 317 309 308 316 321 323 330 334 328 317 299 280 272 266 265 266 268 270 274
125 124 121 119 114 111 109 110 110 105 98 94 90 87 81 75 72 67 62 59 53 47 44 36 35 37 25 19 19 19 19 18 15 11 8 6 6 10 10 10 11 7 3 0 356 348 343 344 343 329 317 328 341 348 1 357 341 341 338 334 330 325 323 322 327 331 324 319 318 317 314 316 322 324 326 327 324 319 305 280 265 259 254 256 259 261 266 269
127 124 121 119 116 115 113 113 112 106 100 95 90 89 82 73 69 62 59 57 47 44 42 33 33 37 27 20 21 19 16 16 13 8 6 6 7 10 9 8 9 6 1 355 350 347 347 342 335 335 340 350 0 5 9 0 348 344 336 333 330 324 324 326 329 330 325 320 318 319 320 325 328 324 325 323 318 312 289 264 252 245 244 248 252 256 260 260
126 124 123 122 122 122 121 120 116 108 103 96 91 88 84 79 70 59 54 47 38 40 42 35 34 34 29 26 25 22 17 14 11 8 7 9 11 10 5 6 5 358 355 352 352 353 350 342 347 1 8 7 7 7 6 358 349 343 336 333 332 327 324 328 332 332 329 321 318 323 324 329 335 325 320 321 322 312 276 253 243 242 245 249 250 252 254 255
125 125 126 127 127 124 122 121 116 112 107 98 94 91 89 84 66 53 45 40 40 41 41 36 33 31 28 27 28 30 24 13 8 9 10 13 12 7 4 5 359 355 359 358 355 354 346 346 359 7 3 0 359 358 359 356 348 342 339 332 332 332 324 328 337 335 331 324 321 325 326 333 337 319 314 319 320 316 277 256 248 249 250 248 246 248 250 254
126 127 128 129 127 123 120 117 113 111 106 102 101 93 78 63 53 51 43 42 44 42 40 36 31 28 26 24 24 30 27 18 15 14 16 19 14 8 6 4 2 3 5 359 355 355 352 356 2 357 351 350 344 341 345 347 348 346 342 334 333 335 329 332 339 337 328 323 322 324 329 336 335 311 316 314 308 311 290 269 260 253 247 243 242 245 251 256
128 130 130 128 125 121 118 113 110 109 107 107 101 70 49 42 45 55 47 43 43 41 40 35 30 28 26 22 22 25 21 19 19 17 20 20 14 12 10 5 4 6 5 1 1 1 1 360 354 344 340 334 328 330 334 337 344 346 341 338 335 336 336 334 335 333 324 322 323 322 325 331 329 317 316 300 299 316 305 281 267 253 242 241 244 251 258 264
130 133 131 126 122 118 115 112 110 110 107 103 74 42 36 37 42 59 58 44 39 36 32 30 28 26 23 20 20 21 17 17 17 17 20 18 14 12 9 6 4 4 5 6 2 360 3 360 350 340 326 321 325 328 332 335 341 343 338 338 337 332 331 329 328 325 320 322 329 326 324 320 262 319 295 286 306 313 303 285 265 248 241 242 248 257 267 277
133 134 131 125 119 113 111 109 109 107 90 60 42 33 32 33 38 59 73 44 35 31 27 25 24 23 23 19 18 19 15 14 17 18 16 13 13 11 6 5 3 4 7 5 359 354 357 355 349 341 326 323 327 330 335 339 340 339 334 334 335 326 321 327 328 322 318 322 338 337 335 280 309 319 286 297 305 296 290 278 258 245 244 248 255 268 280 290
136 135 129 121 114 106 104 102 100 85 49 38 37 33 31 28 34 46 71 47 31 26 23 19 19 21 20 21 21 19 13 13 17 17 12 11 13 10 5 3 3 6 9 3 358 354 352 350 345 341 333 327 330 333 337 340 337 334 329 329 331 321 318 328 330 320 313 315 326 340 351 284 290 318 311 302 288 278 276 264 252 249 252 261 270 282 292 299
135 129 120 112 105 101 96 85 77 57 40 42 38 34 29 22 31 38 58 59 20 17 18 16 18 16 14 18 21 20 20 16 13 10 11 15 13 7 5 3 3 7 9 3 359 354 349 345 340 339 335 328 333 338 340 338 334 330 326 325 328 321 322 330 328 314 303 309 308 271 311 315 297 307 308 293 269 261 260 252 251 256 262 274 284 293 301 306
125 116 109 103 99 94 81 65 58 46 45 49 40 36 24 18 31 37 65 86 12 7 13 15 18 16 12 13 13 18 25 18 12 12 11 10 8 7 5 3 5 5 6 5 359 351 347 341 341 342 334 329 334 340 339 335 329 328 326 324 324 319 325 332 324 304 300 309 294 243 321 326 300 302 297 278 262 248 251 256 259 266 273 282 292 302 309 312
113 107 101 95 88 77 66 62 56 55 66 64 51 40 26 27 52 60 79 81 11 5 11 14 16 18 16 12 9 16 22 17 16 16 9 6 6 6 4 5 9 7 5 6 0 352 348 345 348 346 336 332 334 336 336 332 327 329 325 322 321 321 332 337 316 297 308 296 254 265 344 347 302 301 274 248 252 250 265 272 273 281 287 295 304 310 315 318
105 98 92 83 67 60 63 67 66 70 75 66 57 48 43 47 63 75 69 40 7 6 11 12 12 15 15 14 13 16 18 16 16 15 10 10 9 6 7 10 11 12 4 2 5 4 357 355 354 348 341 336 332 331 336 332 327 330 325 323 326 331 340 345 299 315 317 280 237 263 329 334 313 297 253 236 249 257 271 276 279 287 291 302 311 315 320 323
98 81 77 70 62 63 62 65 69 71 70 60 57 59 63 57 52 72 62 16 5 9 10 10 12 13 11 13 16 15 14 12 11 12 10 9 6 5 11 12 8 10 2 358 6 10 6 3 356 351 345 336 330 332 339 338 336 335 327 328 334 338 343 346 325 334 334 288 303 295 318 323 302 273 274 269 273 274 281 286 291 299 306 314 318 321 324 326
86 67 66 66 68 66 62 67 67 68 69 63 63 68 76 60 52 58 49 16 8 8 9 11 12 13 12 13 15 13 12 11 9 9 9 8 4 6 13 12 8 7 359 355 359 3 4 1 354 353 346 336 337 339 342 345 344 338 329 335 344 342 343 341 327 334 290 280 298 302 315 314 283 281 284 284 289 287 292 298 303 310 316 319 320 323 325 326
85 77 75 72 70 65 66 70 67 72 75 68 73 70 67 71 57 46 39 34 24 11 11 13 13 13 11 12 15 13 11 10 9 10 8 5 4 10 15 14 12 9 357 353 353 355 0 1 353 350 342 336 343 344 343 341 341 339 332 339 348 349 333 320 304 307 280 285 292 303 310 299 287 288 279 287 292 284 288 296 303 311 315 318 321 324 325 323
88 82 78 73 71 70 73 76 72 78 79 71 74 72 69 74 69 53 42 37 29 17 15 18 16 15 13 13 14 13 11 8 9 9 5 1 4 10 12 10 11 8 360 357 354 352 352 348 350 347 336 333 344 347 342 335 338 340 332 331 331 338 327 287 269 269 285 295 298 306 305 288 296 292 285 294 286 271 277 287 298 307 312 318 322 323 321 320
84 79 73 70 74 76 79 82 78 80 82 74 70 72 78 79 71 58 42 33 30 21 19 19 16 17 18 16 14 12 11 8 7 6 4 4 6 7 6 5 5 4 3 360 353 349 335 326 345 346 322 324 340 346 343 338 340 336 331 326 321 328 315 276 272 276 278 292 296 294 281 284 291 289 291 289 265 262 276 288 298 306 313 318 321 320 320 321
82 79 76 76 80 83 82 81 80 76 76 73 65 70 77 79 71 59 42 34 31 23 21 19 14 15 16 16 14 12 12 9 7 6 6 6 7 5 4 2 0 0 1 358 353 349 328 325 345 353 331 333 341 344 346 344 337 328 330 328 323 324 311 284 283 288 287 286 287 286 281 288 293 291 291 278 260 273 289 299 309 317 322 322 322 322 322 324
82 81 82 84 86 86 80 76 76 72 69 68 70 73 76 75 64 56 45 35 30 24 22 21 17 13 11 11 11 10 12 11 9 7 7 6 4 3 3 1 357 356 356 355 353 348 329 326 341 352 341 342 343 341 347 349 335 327 328 329 329 325 312 300 293 295 297 267 286 296 294 296 296 287 287 283 283 293 304 315 322 324 324 324 323 323 325 327
85 84 84 86 86 84 78 73 66 64 64 61 71 75 75 71 61 52 44 34 30 26 22 22 20 12 8 8 7 7 9 11 10 7 6 5 0 359 0 358 355 353 352 352 349 348 335 324 333 343 339 342 346 343 348 352 344 329 323 332 338 328 310 313 305 294 299 278 287 296 298 299 288 278 291 297 301 313 322 326 325 324 325 324 323 325 328 329
86 86 84 81 80 83 81 73 58 59 70 64 70 76 71 66 60 49 43 34 29 26 22 22 19 13 10 7 6 7 7 8 9 6 3 1 357 354 356 356 354 351 350 350 346 344 340 319 318 333 337 341 347 349 349 347 341 323 320 333 342 330 314 313 304 293 290 289 295 297 300 299 281 293 302 303 312 325 328 327 325 325 325 323 325 328 329 329
85 85 85 81 78 76 71 67 58 59 70 66 68 74 68 62 56 46 41 34 28 25 21 19 16 13 12 8 7 7 7 6 5 5 2 358 355 352 352 353 352 351 349 349 345 342 343 321 302 325 338 343 347 351 346 332 319 317 325 335 341 333 327 318 306 299 292 286 299 299 298 301 306 308 303 303 317 324 325 325 325 325 323 324 327 329 328 330
84 82 83 82 76 67 60 64 65 56 59 64 66 67 63 58 52 44 38 31 28 24 20 17 13 12 12 10 8 6 6 5 3 4 1 356 355 352 349 349 349 351 350 348 348 345 344 330 310 325 337 340 344 350 347 331 319 324 331 335 337 335 333 326 308 306 303 295 294 294 291 301 308 306 303 312 320 322 323 325 324 324 324 326 328 327 328 330
77 77 78 73 66 65 63 66 68 58 58 64 65 62 60 54 49 42 34 29 27 22 20 17 12 11 12 9 9 7 4 2 1 3 359 355 355 350 347 348 347 349 349 347 349 346 342 335 325 328 332 337 345 350 350 345 336 333 335 334 334 334 331 322 297 301 304 300 299 295 285 300 311 312 315 320 322 322 324 325 325 326 327 327 327 327 329 330
70 71 74 68 59 63 69 66 63 60 61 63 61 59 56 50 45 39 33 28 24 21 19 16 12 12 11 9 10 8 3 359 359 1 359 354 353 350 348 348 346 347 348 347 347 346 345 340 331 330 333 338 344 345 344 342 337 335 337 335 332 330 327 320 306 300 297 296 301 300 282 302 314 316 318 322 324 323 324 325 326 327 327 327 328 328 329 330
73 69 70 69 63 62 69 68 62 60 61 61 59 57 53 47 42 38 32 26 22 21 18 14 13 12 11 10 10 7 4 1 356 357 357 353 351 349 347 346 346 346 346 346 346 346 347 341 334 333 335 338 341 342 340 338 336 334 332 332 330 327 327 326 319 310 291 286 303 305 288 303 312 317 320 323 324 323 325 326 327 327 327 328 328 329 330 331
73 71 69 69 65 60 65 66 61 57 59 59 58 55 50 44 40 35 30 24 20 20 18 14 14 13 11 10 8 7 6 2 357 354 354 352 349 347 347 346 346 346 346 346 345 344 343 340 339 339 334 325 324 327 328 329 329 330 331 333 332 330 331 328 320 312 298 301 308 297 291 305 314 320 323 324 324 325 327 327 328 328 328 328 329 329 330 330
67 72 71 70 66 58 59 62 60 57 57 56 55 52 46 42 38 32 29 24 20 19 17 15 15 14 12 10 9 9 6 3 359 353 352 352 349 347 347 347 346 347 347 344 342 343 341 339 337 332 322 317 316 320 325 327 326 328 332 334 334 333 330 323 316 313 314 312 306 303 306 311 317 322 324 325 326 327 328 328 328 329 329 329 330 329 329 329
65 68 70 73 68 59 57 60 60 57 55 54 52 49 43 39 36 31 28 23 20 19 16 14 14 14 12 11 10 9 6 4 359 354 353 352 349 348 347 346 346 348 346 342 342 341 337 336 336 331 326 327 328 329 333 334 329 328 330 331 333 332 325 320 319 322 328 322 308 316 320 316 317 322 324 326 328 328 328 328 329 329 330 330 330 329 329 330
65 67 68 71 72 65 60 59 59 57 54 51 50 47 41 35 33 30 26 24 22 20 16 14 13 13 12 10 8 6 4 2 0 356 354 352 350 349 347 346 347 348 344 341 339 338 335 335 335 331 329 333 338 339 338 338 334 333 333 330 331 330 326 324 324 327 332 326 313 318 320 316 317 322 325 327 329 328 327 328 330 330 331 331 330 330 330 330
62 67 67 68 69 66 61 57 57 56 52 48 46 44 39 33 31 29 26 24 22 20 18 15 13 13 12 9 7 4 1 359 359 357 354 353 351 348 347 347 346 345 342 338 336 336 335 334 334 332 330 336 343 342 340 340 338 339 341 333 330 329 325 323 325 330 331 323 317 318 317 316 320 324 326 328 328 327 328 330 331 331 332 332 332 331 331 331
57 63 65 64 63 64 61 56 55 55 50 47 44 41 37 32 30 29 27 25 23 20 19 17 15 13 11 9 6 3 1 359 357 355 353 353 350 348 348 347 344 342 341 339 336 335 334 334 336 335 332 336 344 342 340 342 341 342 342 334 330 326 323 324 329 333 331 323 321 321 317 318 324 326 326 327 328 329 330 331 332 333 334 334 333 332 331 330
54 58 61 61 58 60 60 56 56 54 50 47 42 38 35 31 29 28 26 24 23 21 19 17 16 13 10 9 6 2 1 360 358 355 353 351 350 349 346 343 343 341 341 342 339 336 336 334 337 338 332 333 342 341 339 342 345 343 340 334 327 324 328 333 333 333 331 326 324 323 320 322 326 327 327 328 329 331 331 331 332 334 336 335 334 332 330 328
52 53 57 58 55 58 60 56 55 53 49 47 42 37 34 31 30 29 25 23 22 21 19 17 15 13 10 8 5 3 1 359 357 355 353 352 351 349 346 343 344 344 343 344 341 339 338 335 338 341 331 330 339 341 339 342 347 342 337 332 326 328 333 335 333 331 331 329 325 321 320 324 326 328 328 329 330 331 331 332 334 335 336 335 332 330 328 326
Height
3142 3143 3144 3144 3145 3146 3147 3148 3148 3148 3148 3148 3147 3147 3147 3147 3146 3146 3145 3145 3144 3143 3143 3142 3142 3142 3141 3141 3140 3139 3138 3138 3137 3137 3136 3136 3135 3133 3133 3132 3131 3130 3130 3129 3128 3127 3126 3125 3125 3124 3124 3124 3123 3123 3123 3122 3122 3121 3121 3120 3120 3119 3119 3119 3120 3120 3119 3118 3117 3117 3116 3115 3113 3112 3110 3109 3108 3107 3106 3105 3104 3103 3101 3100 3099 3099 3098 3097
3142 3143 3144 3145 3145 3146 3147 3148 3148 3148 3148 3148 3147 3147 3147 3147 3146 3146 3145 3145 3144 3144 3143 3142 3142 3142 3141 3141 3140 3139 3139 3138 3137 3137 3136 3136 3135 3134 3133 3132 3131 3130 3129 3129 3128 3127 3126 3125 3125 3124 3124 3123 3123 3123 3122 3122 3121 3120 3120 3119 3119 3118 3119 3119 3119 3119 3118 3117 3116 3116 3115 3114 3112 3109 3108 3107 3106 3105 3104 3102 3101 3099 3098 3097 3096 3096 3095 3095
3143 3143 3144 3145 3146 3147 3147 3148 3148 3148 3148 3147 3147 3147 3147 3147 3146 3146 3145 3145 3144 3143 3143 3142 3142 3141 3141 3141 3140 3139 3138 3138 3137 3137 3136 3135 3134 3134 3133 3132 3131 3130 3129 3129 3128 3127 3126 3125 3125 3124 3124 3123 3122 3122 3122 3121 3121 3120 3119 3119 3118 3118 3118 3118 3118 3118 3117 3116 3114 3114 3113 3112 3110 3108 3106 3105 3103 3102 3101 3100 3098 3097 3096 3095 3095 3094 3093 3092
3143 3144 3145 3146 3147 3147 3148 3148 3148 3148 3148 3148 3148 3148 3147 3146 3146 3145 3145 3145 3144 3143 3143 3142 3142 3141 3141 3140 3140 3139 3138 3138 3138 3137 3136 3135 3134 3133 3133 3132 3131 3130 3129 3129 3128 3127 3126 3125 3125 3124 3123 3122 3122 3121 3121 3120 3120 3119 3119 3118 3118 3118 3117 3117 3116 3116 3115 3114 3113 3112 3112 3110 3109 3107 3105 3103 3101 3099 3098 3097 3095 3095 3094 3093 3093 3092 3091 3090
3143 3144 3145 3146 3147 3148 3148 3148 3148 3148 3148 3148 3148 3147 3147 3146 3146 3146 3145 3145 3144 3144 3143 3142 3142 3141 3141 3140 3140 3139 3139 3138 3138 3137 3136 3135 3134 3133 3133 3132 3131 3130 3129 3129 3128 3126 3125 3125 3124 3124 3123 3122 3121 3121 3120 3120 3120 3119 3118 3118 3117 3117 3117 3116 3115 3115 3114 3113 3112 3111 3110 3109 3108 3106 3105 3102 3099 3097 3096 3094 3093 3092 3092 3091 3090 3089 3088 3087
3143 3145 3146 3147 3148 3148 3148 3148 3148 3148 3148 3148 3147 3147 3147 3146 3146 3146 3145 3144 3144 3143 3143 3143 3142 3142 3141 3141 3140 3140 3139 3139 3138 3137 3136 3135 3134 3133 3133 3132 3131 3130 3129 3129 3128 3127 3126 3125 3124 3123 3123 3122 3121 3120 3120 3119 3119 3119 3118 3117 3117 3117 3116 3116 3115 3114 3113 3111 3110 3109 3108 3107 3106 3105 3103 3101 3098 3096 3094 3092 3091 3090 3089 3089 3088 3087 3086 3084
3144 3145 3146 3147 3148 3148 3148 3148 3148 3148 3148 3147 3147 3147 3147 3147 3146 3146 3145 3145 3144 3143 3143 3143 3142 3142 3142 3141 3141 3141 3140 3139 3139 3137 3136 3135 3134 3134 3133 3132 3131 3130 3129 3129 3128 3127 3126 3125 3124 3124 3123 3122 3121 3120 3119 3119 3118 3118 3117 3116 3116 3116 3115 3115 3114 3113 3111 3110 3109 3108 3106 3105 3104 3102 3101 3098 3096 3094 3092 3090 3089 3088 3087 3087 3085 3084 3083 3081
3145 3146 3146 3147 3147 3148 3148 3148 3148 3148 3147 3147 3147 3147 3147 3147 3146 3146 3145 3145 3144 3144 3144 3143 3143 3143 3143 3142 3142 3141 3140 3140 3138 3137 3137 3136 3135 3134 3133 3133 3132 3131 3130 3129 3128 3127 3126 3125 3125 3124 3123 3121 3121 3120 3119 3118 3117 3117 3116 3115 3115 3115 3114 3113 3112 3111 3109 3108 3106 3105 3103 3102 3101 3099 3098 3096 3094 3092 3090 3089 3087 3086 3085 3084 3083 3081 3080 3078
3145 3146 3146 3147 3147 3147 3148 3147 3147 3147 3147 3148 3148 3148 3147 3147 3147 3146 3146 3145 3145 3145 3144 3144 3144 3144 3144 3143 3142 3142 3141 3140 3139 3138 3138 3137 3136 3135 3134 3133 3132 3131 3130 3129 3128 3127 3126 3125 3124 3123 3122 3121 3120 3119 3119 3118 3117 3116 3115 3114 3114 3114 3113 3111 3110 3108 3106 3105 3103 3101 3099 3099 3098 3096 3095 3093 3091 3090 3088 3086 3085 3084 3083 3082 3080 3079 3077 3075
3145 3145 3146 3147 3147 3147 3147 3147 3147 3147 3148 3148 3148 3148 3147 3147 3147 3147 3147 3146 3146 3145 3145 3145 3145 3145 3144 3143 3143 3142 3141 3140 3140 3139 3138 3137 3136 3135 3135 3134 3133 3131 3130 3129 3128 3127 3126 3125 3124 3123 3122 3121 3120 3119 3118 3117 3116 3115 3114 3113 3113 3112 3111 3109 3108 3106 3104 3102 3100 3098 3095 3095 3095 3094 3092 3091 3089 3087 3085 3084 3082 3081 3080 3078 3077 3076 3074 3072
3145 3145 3146 3146 3147 3147 3147 3147 3148 3148 3148 3148 3148 3148 3148 3148 3148 3148 3148 3147 3147 3146 3146 3146 3146 3145 3144 3144 3143 3143 3142 3142 3141 3140 3139 3138 3137 3136 3135 3134 3133 3131 3130 3129 3128 3127 3125 3124 3123 3122 3121 3120 3119 3118 3117 3116 3115 3114 3113 3112 3111 3110 3109 3107 3106 3104 3102 3100 3098 3096 3092 3091 3092 3091 3090 3088 3086 3085 3083 3081 3080 3078 3077 3075 3073 3072 3070 3068
3145 3145 3146 3146 3147 3147 3147 3148 3148 3148 3149 3149 3149 3149 3149 3149 3149 3149 3148 3148 3148 3147 3147 3147 3147 3146 3145 3145 3145 3144 3143 3143 3142 3141 3140 3139 3138 3137 3135 3134 3133 3131 3130 3129 3127 3126 3125 3123 3123 3122 3121 3120 3119 3117 3116 3115 3115 3114 3113 3112 3110 3110 3108 3106 3105 3102 3101 3099 3097 3095 3089 3088 3091 3089 3088 3086 3084 3083 3080 3079 3077 3075 3073 3072 3070 3068 3066 3064
3145 3145 3146 3147 3147 3147 3148 3148 3149 3149 3149 3149 3150 3150 3150 3150 3150 3150 3149 3149 3148 3148 3148 3148 3148 3147 3146 3146 3146 3145 3145 3143 3142 3141 3140 3139 3138 3137 3135 3134 3132 3131 3129 3128 3127 3126 3124 3123 3122 3121 3120 3119 3118 3117 3116 3115 3114 3113 3112 3111 3110 3109 3108 3106 3104 3101 3100 3098 3097 3095 3087 3083 3088 3088 3085 3084 3082 3080 3078 3076 3074 3072 3070 3068 3066 3064 3062 3060
3145 3146 3146 3147 3148 3148 3148 3149 3149 3150 3150 3150 3151 3151 3151 3151 3151 3151 3150 3150 3149 3149 3149 3149 3149 3148 3148 3147 3147 3146 3145 3143 3142 3142 3141 3139 3137 3136 3135 3134 3132 3130 3129 3127 3126 3125 3124 3123 3121 3120 3120 3119 3117 3116 3115 3114 3113 3112 3111 3110 3108 3107 3106 3105 3103 3100 3098 3096 3095 3094 3086 3080 3084 3085 3082 3081 3079 3077 3075 3073 3071 3068 3067 3064 3062 3060 3058 3056
3146 3147 3147 3148 3148 3149 3149 3150 3150 3151 3151 3152 3152 3152 3152 3152 3152 3151 3151 3151 3151 3151 3150 3150 3149 3149 3148 3148 3147 3146 3145 3144 3143 3142 3141 3139 3137 3136 3135 3134 3132 3130 3129 3128 3126 3125 3123 3123 3122 3121 3120 3118 3117 3115 3114 3113 3112 3111 3109 3108 3107 3105 3103 3103 3102 3098 3095 3094 3093 3092 3085 3079 3081 3081 3079 3078 3076 3074 3072 3070 3068 3065 3064 3061 3059 3057 3056 3054
3147 3148 3148 3149 3149 3149 3150 3151 3151 3152 3152 3153 3153 3153 3153 3153 3153 3152 3152 3152 3152 3152 3151 3150 3150 3149 3149 3148 3147 3147 3146 3145 3143 3141 3140 3139 3137 3136 3135 3134 3132 3131 3129 3128 3126 3125 3123 3123 3122 3120 3119 3118 3117 3115 3113 3112 3111 3110 3108 3106 3105 3103 3100 3099 3100 3098 3093 3091 3090 3090 3084 3079 3079 3078 3076 3075 3073 3071 3069 3067 3065 3063 3061 3059 3057 3055 3054 3052
3148 3149 3149 3149 3150 3150 3151 3152 3152 3153 3154 3154 3154 3154 3154 3154 3154 3154 3154 3153 3153 3152 3152 3151 3150 3150 3149 3148 3148 3146 3145 3143 3142 3141 3140 3139 3137 3136 3135 3133 3132 3131 3129 3128 3126 3124 3123 3122 3120 3119 3118 3117 3116 3114 3113 3111 3109 3108 3107 3105 3103 3102 3099 3096 3096 3095 3092 3088 3087 3086 3083 3079 3078 3076 3073 3071 3070 3068 3066 3065 3063 3061 3059 3057 3055 3054 3051 3049
3149 3149 3150 3150 3151 3151 3152 3153 3154 3154 3155 3155 3155 3155 3155 3155 3155 3155 3154 3154 3153 3153 3153 3152 3151 3149 3149 3148 3147 3145 3144 3143 3142 3141 3140 3139 3138 3136 3135 3133 3132 3131 3129 3128 3126 3125 3123 3122 3120 3119 3118 3117 3115 3113 3112 3112 3110 3107 3106 3104 3102 3100 3099 3096 3094 3092 3088 3085 3083 3081 3079 3076 3075 3074 3071 3068 3066 3065 3064 3063 3061 3059 3058 3056 3054 3051 3048 3046
3149 3150 3151 3151 3152 3152 3153 3154 3155 3155 3156 3156 3156 3156 3156 3156 3156 3156 3155 3155 3155 3154 3153 3152 3150 3149 3149 3148 3146 3145 3145 3144 3143 3142 3141 3140 3137 3136 3134 3133 3132 3130 3129 3128 3126 3125 3123 3121 3120 3119 3117 3116 3115 3113 3113 3112 3111 3109 3106 3104 3101 3098 3098 3097 3094 3091 3086 3081 3079 3078 3074 3073 3072 3070 3068 3066 3063 3062 3061 3060 3059 3057 3056 3054 3051 3048 3045 3043
3150 3151 3152 3152 3153 3153 3154 3154 3155 3156 3156 3157 3157 3157 3157 3157 3157 3157 3156 3156 3154 3153 3153 3153 3151 3150 3150 3149 3148 3147 3146 3145 3144 3143 3141 3139 3137 3135 3134 3133 3132 3131 3130 3128 3126 3124 3122 3121 3119 3118 3117 3117 3115 3114 3114 3112 3111 3109 3107 3104 3102 3098 3095 3095 3093 3090 3087 3081 3075 3075 3072 3070 3069 3067 3066 3064 3061 3060 3059 3058 3057 3055 3054 3051 3048 3045 3042 3040
3151 3152 3153 3153 3154 3154 3155 3155 3155 3156 3157 3157 3158 3158 3158 3158 3158 3157 3156 3155 3154 3154 3154 3153 3152 3152 3151 3150 3150 3148 3147 3146 3145 3143 3141 3139 3138 3136 3135 3134 3133 3131 3129 3127 3125 3124 3122 3121 3120 3119 3118 3117 3116 3115 3114 3113 3111 3109 3106 3104 3101 3098 3093 3092 3091 3087 3085 3080 3073 3071 3071 3069 3068 3066 3064 3061 3059 3058 3057 3056 3055 3053 3051 3048 3045 3042 3040 3037
3152 3153 3154 3154 3155 3155 3156 3156 3156 3157 3157 3158 3158 3159 3158 3158 3157 3157 3157 3156 3155 3156 3155 3154 3154 3153 3152 3150 3150 3149 3148 3148 3146 3144 3142 3140 3138 3137 3135 3134 3133 3131 3129 3128 3126 3124 3123 3121 3121 3120 3119 3118 3117 3116 3115 3113 3111 3108 3105 3102 3099 3097 3091 3085 3085 3084 3081 3078 3072 3069 3068 3066 3066 3064 3062 3059 3057 3056 3055 3054 3052 3050 3047 3045 3042 3040 3037 3035
3154 3155 3155 3156 3156 3157 3157 3157 3158 3158 3159 3159 3159 3159 3158 3158 3158 3158 3158 3157 3157 3157 3156 3156 3155 3154 3152 3151 3150 3149 3148 3147 3145 3143 3141 3139 3138 3137 3135 3134 3132 3131 3130 3128 3127 3125 3123 3122 3122 3121 3119 3118 3117 3115 3114 3111 3109 3106 3103 3101 3097 3095 3091 3084 3081 3080 3078 3076 3072 3068 3067 3065 3063 3062 3060 3058 3055 3054 3053 3052 3050 3047 3044 3042 3040 3037 3035 3032
3155 3156 3157 3157 3157 3158 3158 3159 3159 3160 3160 3160 3159 3159 3158 3158 3158 3158 3158 3158 3157 3157 3156 3156 3155 3154 3153 3151 3150 3148 3147 3146 3144 3143 3141 3140 3138 3136 3135 3134 3132 3131 3130 3128 3127 3125 3124 3123 3122 3121 3119 3118 3116 3114 3112 3108 3107 3105 3102 3099 3096 3093 3092 3088 3082 3077 3074 3073 3071 3067 3065 3063 3062 3060 3059 3056 3055 3054 3052 3049 3047 3044 3042 3040 3037 3035 3032 3030
3157 3157 3158 3158 3159 3159 3160 3160 3161 3161 3160 3160 3159 3159 3158 3158 3158 3158 3158 3157 3157 3157 3156 3156 3155 3154 3153 3152 3150 3148 3147 3146 3144 3142 3141 3140 3138 3137 3135 3134 3133 3131 3130 3129 3127 3126 3124 3123 3122 3120 3119 3117 3115 3112 3110 3106 3104 3103 3100 3098 3095 3092 3089 3086 3081 3075 3071 3070 3070 3067 3064 3062 3060 3058 3056 3055 3054 3052 3049 3046 3044 3042 3039 3037 3035 3033 3030 3027
3158 3159 3159 3160 3160 3161 3161 3161 3161 3161 3160 3160 3159 3159 3159 3158 3158 3158 3158 3157 3157 3157 3157 3156 3156 3155 3154 3153 3151 3149 3148 3146 3144 3143 3143 3141 3139 3137 3136 3135 3133 3132 3131 3129 3127 3125 3124 3122 3121 3119 3118 3116 3114 3111 3109 3106 3102 3100 3098 3096 3094 3091 3087 3082 3078 3074 3070 3068 3068 3067 3065 3062 3058 3056 3054 3052 3051 3049 3045 3043 3041 3039 3037 3035 3033 3030 3027 3025
3159 3160 3161 3161 3162 3162 3162 3162 3161 3161 3160 3160 3160 3159 3159 3158 3158 3157 3156 3157 3158 3158 3158 3157 3156 3155 3154 3153 3151 3150 3149 3148 3146 3145 3143 3141 3139 3138 3137 3135 3133 3131 3130 3129 3127 3125 3124 3122 3120 3118 3117 3115 3112 3110 3107 3105 3101 3098 3096 3094 3091 3088 3084 3080 3075 3072 3069 3067 3066 3065 3064 3060 3056 3054 3052 3049 3047 3045 3042 3040 3038 3037 3035 3033 3030 3028 3025 3021
3161 3162 3162 3162 3163 3163 3162 3162 3162 3161 3161 3161 3160 3159 3159 3158 3157 3157 3156 3158 3161 3161 3159 3159 3157 3156 3154 3153 3152 3151 3150 3149 3148 3145 3142 3141 3141 3139 3137 3135 3133 3131 3130 3129 3126 3124 3123 3121 3119 3117 3116 3114 3111 3109 3107 3104 3100 3097 3094 3092 3089 3086 3083 3078 3072 3069 3068 3066 3064 3062 3061 3059 3054 3052 3050 3047 3044 3042 3040 3038 3037 3035 3033 3030 3027 3025 3021 3018
3162 3163 3163 3163 3163 3163 3163 3162 3162 3162 3161 3161 3160 3159 3158 3157 3157 3157 3156 3160 3164 3162 3161 3160 3159 3158 3157 3155 3154 3152 3151 3149 3147 3145 3144 3143 3141 3139 3137 3135 3133 3131 3130 3129 3127 3124 3122 3120 3118 3117 3114 3112 3111 3109 3107 3103 3099 3096 3093 3090 3087 3084 3079 3074 3069 3067 3067 3064 3061 3060 3059 3058 3052 3047 3046 3044 3042 3040 3038 3036 3035 3032 3029 3027 3024 3021 3017 3014
3163 3163 3164 3164 3164 3163 3163 3163 3162 3162 3161 3160 3160 3159 3158 3158 3157 3157 3158 3162 3164 3163 3162 3161 3160 3159 3158 3157 3154 3152 3150 3149 3148 3147 3145 3143 3142 3140 3138 3136 3134 3131 3130 3129 3127 3124 3121 3119 3118 3116 3113 3111 3109 3109 3106 3102 3098 3095 3091 3087 3083 3079 3074 3070 3068 3066 3064 3061 3059 3058 3057 3057 3051 3045 3043 3042 3040 3038 3036 3034 3032 3029 3026 3023 3020 3017 3013 3008
3164 3164 3164 3164 3164 3164 3163 3163 3162 3162 3161 3160 3160 3159 3159 3159 3157 3158 3161 3164 3164 3163 3162 3161 3160 3159 3157 3155 3153 3151 3150 3149 3147 3146 3144 3141 3140 3138 3135 3132 3130 3128 3127 3125 3124 3122 3120 3118 3117 3114 3112 3110 3108 3106 3104 3101 3097 3094 3090 3085 3079 3073 3068 3066 3065 3065 3063 3059 3057 3057 3055 3054 3051 3045 3042 3040 3037 3035 3033 3031 3028 3025 3022 3019 3016 3012 3008 3004
3164 3164 3164 3164 3164 3164 3163 3163 3162 3162 3161 3161 3160 3160 3160 3160 3159 3161 3164 3164 3163 3163 3162 3161 3160 3159 3157 3155 3153 3152 3150 3148 3146 3144 3141 3139 3137 3134 3132 3130 3128 3125 3124 3121 3120 3121 3119 3117 3116 3113 3111 3109 3106 3102 3099 3097 3095 3092 3089 3085 3081 3075 3071 3068 3066 3065 3063 3058 3056 3056 3054 3051 3047 3043 3041 3038 3034 3032 3030 3027 3024 3021 3017 3014 3011 3008 3004 3000
3165 3165 3165 3165 3164 3164 3164 3163 3163 3162 3162 3161 3160 3161 3160 3161 3163 3165 3165 3164 3164 3164 3162 3161 3161 3159 3158 3156 3154 3152 3150 3148 3146 3144 3142 3141 3139 3136 3135 3134 3131 3129 3127 3123 3120 3118 3117 3115 3114 3112 3110 3109 3106 3101 3096 3094 3093 3091 3088 3086 3084 3082 3080 3075 3070 3068 3062 3054 3053 3056 3054 3049 3044 3041 3039 3035 3032 3029 3027 3024 3021 3017 3014 3011 3007 3004 3000 2995
3166 3166 3165 3165 3165 3164 3164 3164 3163 3163 3162 3162 3161 3162 3161 3162 3165 3166 3166 3165 3165 3164 3163 3162 3161 3160 3158 3155 3153 3152 3150 3148 3146 3144 3143 3141 3138 3136 3135 3133 3132 3131 3128 3125 3121 3119 3117 3115 3113 3111 3109 3108 3106 3103 3100 3096 3092 3090 3089 3087 3085 3085 3085 3078 3070 3066 3060 3053 3051 3053 3052 3046 3042 3039 3036 3033 3030 3027 3023 3021 3018 3015 3011 3008 3004 3000 2995 2990
3166 3166 3165 3165 3165 3165 3164 3164 3164 3163 3163 3163 3163 3163 3163 3164 3166 3166 3166 3166 3165 3164 3163 3162 3161 3160 3158 3156 3154 3152 3150 3148 3146 3144 3142 3140 3136 3134 3133 3132 3131 3129 3127 3124 3122 3120 3118 3115 3114 3111 3109 3108 3106 3103 3101 3096 3093 3090 3088 3087 3085 3084 3082 3075 3066 3063 3060 3054 3050 3049 3047 3043 3040 3037 3034 3031 3027 3024 3021 3018 3016 3012 3008 3005 3001 2996 2991 2986
3167 3166 3166 3166 3166 3165 3165 3164 3164 3164 3164 3164 3164 3163 3164 3165 3167 3166 3166 3166 3165 3164 3163 3162 3161 3159 3157 3156 3154 3152 3151 3149 3147 3144 3142 3139 3137 3136 3134 3132 3130 3128 3127 3125 3123 3120 3117 3112 3112 3111 3109 3108 3105 3102 3100 3097 3093 3090 3088 3086 3084 3081 3077 3071 3064 3060 3060 3057 3049 3044 3043 3041 3039 3036 3031 3028 3024 3021 3018 3015 3012 3008 3004 3001 2996 2991 2986 2981
3167 3167 3167 3167 3166 3166 3166 3165 3165 3165 3165 3165 3164 3164 3165 3166 3167 3166 3166 3166 3165 3164 3163 3161 3160 3158 3156 3155 3154 3152 3151 3149 3147 3145 3142 3140 3138 3137 3135 3133 3131 3129 3128 3126 3124 3123 3118 3110 3108 3109 3108 3107 3104 3101 3099 3097 3093 3090 3088 3085 3081 3077 3074 3071 3065 3059 3059 3056 3046 3041 3040 3038 3036 3032 3028 3026 3022 3018 3015 3011 3007 3004 3000 2996 2992 2987 2983 2978
3168 3168 3168 3168 3167 3167 3166 3166 3166 3165 3165 3165 3165 3165 3166 3167 3167 3167 3166 3166 3165 3164 3163 3161 3160 3159 3157 3155 3153 3152 3150 3149 3147 3145 3143 3141 3139 3138 3136 3134 3132 3130 3128 3127 3125 3124 3120 3110 3105 3106 3106 3104 3102 3099 3096 3094 3093 3090 3088 3085 3081 3076 3072 3070 3067 3061 3058 3053 3044 3038 3036 3035 3032 3029 3026 3023 3019 3015 3011 3006 3003 3000 2995 2991 2987 2983 2978 2973
3169 3169 3169 3169 3168 3168 3167 3166 3166 3166 3166 3166 3165 3166 3167 3167 3167 3167 3166 3166 3165 3164 3163 3162 3160 3159 3157 3155 3154 3152 3150 3148 3147 3146 3144 3142 3141 3139 3137 3136 3134 3131 3129 3127 3125 3123 3122 3115 3106 3104 3105 3102 3099 3097 3093 3091 3091 3089 3087 3085 3082 3079 3074 3070 3067 3063 3058 3052 3044 3036 3031 3030 3029 3027 3024 3021 3016 3012 3008 3003 2999 2995 2991 2987 2983 2978 2973 2968
3171 3170 3170 3170 3169 3169 3167 3166 3167 3167 3166 3166 3166 3166 3167 3167 3167 3167 3166 3166 3165 3164 3163 3161 3160 3159 3158 3156 3154 3152 3151 3150 3148 3147 3145 3144 3142 3139 3137 3136 3134 3132 3130 3128 3126 3122 3121 3117 3107 3101 3102 3100 3097 3096 3093 3090 3089 3087 3085 3082 3080 3078 3075 3069 3064 3061 3057 3052 3046 3038 3030 3026 3027 3025 3022 3019 3014 3010 3006 3000 2996 2992 2988 2984 2979 2974 2969 2963
3172 3171 3171 3170 3170 3168 3167 3166 3168 3168 3166 3166 3166 3167 3167 3167 3167 3167 3166 3166 3165 3164 3163 3161 3160 3159 3158 3156 3155 3153 3152 3150 3149 3147 3146 3144 3143 3140 3138 3136 3134 3132 3129 3127 3125 3122 3118 3115 3108 3099 3097 3097 3096 3095 3093 3090 3089 3086 3083 3081 3078 3075 3072 3069 3063 3058 3056 3051 3046 3041 3030 3024 3026 3024 3020 3017 3013 3008 3003 2997 2993 2988 2984 2980 2975 2970 2964 2959
3173 3172 3171 3171 3169 3168 3168 3168 3168 3168 3167 3167 3167 3167 3167 3167 3167 3167 3166 3165 3165 3164 3163 3162 3160 3159 3158 3156 3155 3153 3151 3150 3149 3148 3146 3144 3143 3140 3138 3136 3133 3131 3129 3126 3124 3122 3118 3114 3108 3101 3097 3096 3095 3093 3091 3090 3088 3086 3083 3079 3077 3073 3071 3070 3064 3057 3054 3047 3043 3041 3031 3023 3025 3023 3019 3016 3011 3006 3001 2995 2990 2985 2980 2975 2969 2964 2959 2954
3173 3172 3171 3171 3170 3169 3169 3169 3168 3168 3168 3168 3168 3168 3168 3168 3167 3167 3166 3166 3165 3164 3163 3162 3161 3159 3158 3157 3155 3154 3152 3150 3148 3147 3146 3143 3142 3140 3138 3135 3133 3130 3128 3126 3124 3122 3118 3115 3110 3102 3096 3093 3093 3092 3091 3090 3087 3083 3080 3077 3075 3072 3069 3068 3063 3058 3053 3044 3040 3037 3028 3021 3024 3022 3018 3014 3008 3003 2998 2993 2987 2981 2976 2971 2965 2959 2954 2949
3173 3172 3172 3171 3171 3171 3170 3169 3169 3169 3169 3168 3168 3168 3168 3168 3168 3167 3167 3166 3165 3164 3163 3162 3161 3160 3158 3157 3156 3154 3152 3150 3148 3146 3145 3143 3141 3139 3137 3134 3132 3129 3127 3126 3124 3121 3119 3116 3112 3106 3098 3092 3088 3087 3085 3084 3083 3081 3078 3075 3073 3070 3067 3064 3060 3056 3052 3045 3042 3038 3025 3017 3020 3019 3014 3010 3004 2999 2995 2990 2985 2978 2971 2966 2960 2954 2950 2944
3173 3173 3172 3172 3172 3172 3171 3170 3170 3170 3169 3169 3169 3169 3168 3168 3168 3167 3167 3166 3165 3164 3163 3162 3161 3160 3158 3157 3156 3155 3153 3151 3148 3146 3144 3142 3140 3138 3136 3133 3131 3128 3126 3124 3123 3121 3119 3117 3114 3111 3107 3101 3094 3089 3085 3081 3079 3078 3076 3073 3070 3067 3064 3061 3057 3054 3049 3044 3043 3039 3025 3014 3014 3014 3009 3004 2999 2994 2990 2985 2981 2975 2968 2962 2956 2950 2945 2940
3174 3173 3173 3172 3173 3173 3171 3170 3171 3170 3170 3170 3169 3169 3169 3169 3168 3168 3167 3166 3165 3164 3163 3162 3161 3160 3159 3158 3156 3154 3152 3150 3148 3146 3144 3142 3139 3137 3134 3132 3129 3127 3125 3123 3121 3120 3117 3115 3114 3111 3110 3107 3100 3094 3090 3086 3080 3075 3072 3070 3068 3065 3062 3059 3056 3053 3048 3042 3037 3035 3027 3014 3008 3008 3004 2999 2994 2988 2983 2978 2974 2969 2964 2958 2952 2946 2940 2935
3174 3174 3173 3173 3173 3173 3172 3172 3172 3171 3171 3170 3170 3169 3169 3169 3168 3168 3167 3166 3165 3164 3163 3162 3161 3160 3158 3157 3155 3153 3151 3150 3148 3145 3143 3141 3138 3136 3133 3131 3128 3126 3124 3122 3120 3118 3115 3113 3112 3109 3106 3103 3099 3093 3089 3086 3081 3074 3070 3068 3066 3064 3060 3058 3055 3051 3047 3040 3029 3025 3025 3015 3005 3005 3002 2996 2991 2985 2978 2974 2969 2963 2959 2953 2947 2941 2936 2931
3175 3174 3174 3174 3173 3174 3173 3173 3172 3172 3171 3171 3170 3170 3169 3169 3168 3168 3167 3166 3165 3164 3163 3161 3160 3158 3157 3155 3153 3151 3150 3148 3147 3144 3142 3140 3137 3135 3132 3130 3128 3125 3123 3121 3119 3117 3114 3111 3109 3106 3101 3099 3096 3091 3087 3083 3079 3074 3070 3067 3064 3062 3058 3055 3054 3050 3047 3042 3029 3021 3019 3013 3005 3002 2999 2994 2989 2982 2975 2970 2965 2959 2953 2948 2942 2936 2931 2926
3175 3175 3175 3174 3174 3174 3174 3173 3173 3172 3172 3171 3170 3170 3170 3169 3168 3168 3167 3166 3165 3164 3163 3161 3159 3157 3156 3154 3152 3150 3148 3147 3145 3143 3141 3139 3136 3134 3132 3129 3127 3125 3123 3121 3118 3116 3113 3110 3107 3103 3097 3094 3092 3088 3084 3081 3076 3072 3070 3066 3062 3060 3057 3054 3051 3049 3045 3041 3033 3023 3016 3011 3006 3002 2997 2992 2987 2980 2973 2967 2960 2954 2948 2942 2937 2932 2927 2922
3176 3175 3175 3175 3174 3174 3174 3173 3173 3172 3172 3171 3171 3170 3170 3169 3168 3167 3167 3166 3165 3163 3162 3161 3159 3157 3155 3153 3151 3150 3148 3146 3145 3143 3140 3138 3136 3133 3131 3129 3127 3125 3123 3120 3118 3115 3112 3109 3106 3100 3093 3090 3089 3085 3081 3078 3074 3070 3068 3065 3061 3057 3055 3052 3048 3044 3040 3033 3027 3021 3012 3006 3004 3001 2994 2989 2984 2976 2968 2961 2955 2949 2944 2938 2932 2927 2923 2918
3176 3175 3175 3175 3175 3174 3174 3173 3173 3173 3172 3172 3171 3170 3170 3169 3168 3167 3166 3165 3164 3163 3162 3160 3159 3157 3155 3153 3151 3150 3148 3146 3144 3142 3140 3138 3135 3133 3131 3129 3127 3125 3122 3120 3117 3114 3111 3107 3104 3099 3091 3087 3086 3083 3077 3074 3071 3069 3066 3063 3059 3055 3052 3049 3046 3042 3037 3027 3019 3013 3007 3001 2998 2995 2989 2983 2978 2972 2964 2957 2951 2945 2940 2935 2929 2923 2918 2912
3176 3176 3175 3175 3175 3174 3174 3174 3173 3173 3172 3172 3171 3170 3170 3169 3168 3167 3166 3165 3163 3162 3161 3160 3158 3156 3155 3153 3151 3149 3147 3145 3144 3142 3140 3137 3135 3133 3130 3128 3126 3124 3121 3119 3116 3113 3110 3106 3102 3099 3091 3085 3084 3081 3075 3070 3067 3064 3062 3059 3057 3053 3049 3046 3043 3040 3036 3028 3018 3010 3005 3000 2995 2989 2982 2976 2971 2966 2960 2954 2948 2941 2936 2931 2925 2919 2913 2908